Regional Weather Roundup
Issued by NWS

Home | Current Version | Previous Version | Graphics & Text | Print | Product List | Glossary On
Versions: 1 2 3 4 5 6 7 8 9 10 11 12 13 14 15 16 17 18 19 20 21 22 23 24 25 26 27 28 29 30 31 32 33 34 35 36 37 38 39 40 41 42 43 44 45 46 47 48 49 50
000
ASUS43 KMKX 230600
RWRWI

WISCONSIN REGIONAL WEATHER ROUNDUP
NATIONAL WEATHER SERVICE MILWAUKEE/SULLIVAN WI
100 AM CDT WED JUL 23 2014

NOTE: "FAIR" INDICATES FEW OR NO CLOUDS BELOW 12,000 FEET WITH NO
SIGNIFICANT WEATHER AND/OR OBSTRUCTIONS TO VISIBILITY.

WIZ001-002-006>008-014>016-023>028-230700-
NORTHWEST WISCONSIN

CITY           SKY/WX    TMP DP  RH WIND       PRES   REMARKS
SUPERIOR ARPT  CLEAR     54  54  98 S3        30.16S
ASHLAND        CLEAR     56  55  97 CALM      30.17R
6HR MIN TEMP:  54; 6HR MAX TEMP:  74;

HAYWARD        CLEAR     56  54  93 CALM      30.18R
6HR MIN TEMP:  55; 6HR MAX TEMP:  76;

SIREN          MOCLDY    61  57  86 CALM      30.18S
RICE LAKE      CLEAR     63  58  84 CALM      30.18R
LADYSMITH      CLEAR     60  57  89 N5        30.18R
EAU CLAIRE     CLEAR     64  61  90 N5        30.15R
6HR MIN TEMP:  64; 6HR MAX TEMP:  80;

MENOMONIE      CLEAR     65  61  85 NW6       30.15R
NEW RICHMOND   CLEAR     62  57  82 N3        30.17S
OSCEOLA        CLEAR     65  58  80 CALM      30.19S
$$

WIZ003>005-009-010-017-018-230700-
NORTH CENTRAL WISCONSIN

CITY           SKY/WX    TMP DP  RH WIND       PRES   REMARKS
WOODRUFF       CLEAR     55  51  89 CALM      30.16R
RHINELANDER    CLEAR     56  55  97 CALM      30.16R
6HR MIN TEMP:  56; 6HR MAX TEMP:  66;

EAGLE RIVER    FOG       51  51 100 CALM      30.15R VSB 1/4
LAND O LAKES   CLEAR     51  50  99 CALM      30.16R
PHILLIPS       CLEAR     58  57  96 CALM      30.16R
TOMAHAWK       CLEAR     56  54  95 CALM      30.16R
MEDFORD        CLEAR     58  56  93 N3        30.15R
MERRILL        CLEAR     56  56  99 N3        30.14R
$$

WIZ029-030-035-036-043>047-230700-
CENTRAL WISCONSIN

CITY           SKY/WX    TMP DP  RH WIND       PRES   REMARKS
WAUSAU         PTCLDY    62  58  86 N6        30.13R
6HR MIN TEMP:  62; 6HR MAX TEMP:  77;

MOSINEE        PTCLDY    61  59  94 NE7       30.14R
MARSHFIELD     CLEAR     64  58  80 N5        30.14R
6HR MIN TEMP:  64; 6HR MAX TEMP:  78;

STEVENS POINT  PTCLDY    61  57  86 N5        30.13R
WAUPACA        PTCLDY    66  59  78 N3        30.11R
WAUTOMA        NOT AVBL
WISC RAPIDS    CLEAR     65  58  78 NE8       30.14R
6HR MIN TEMP:  65; 6HR MAX TEMP:  81;

CAMP DOUGLAS   NOT AVBL
$$

WIZ011>013-019>022-031-037>040-048>050-230700-
NORTHEAST WISCONSIN

CITY           SKY/WX    TMP DP  RH WIND       PRES   REMARKS
ANTIGO         PTCLDY    56  55  97 N5        30.14R
STURGEON BAY   CLEAR     64  54  68 N13G20    30.09R
6HR MIN TEMP:  64; 6HR MAX TEMP:  81;

GREEN BAY      CLEAR     62  56  80 N6        30.10R
6HR MIN TEMP:  62; 6HR MAX TEMP:  85;

MANITOWOC      PTCLDY    64  57  77 VRB3      30.10R
APPLETON       CLEAR     63  54  72 N9        30.11R
CLINTONVILLE   CLEAR     63  55  77 N6        30.10R
OSHKOSH        PTCLDY    67  58  72 N10       30.11R
6HR MIN TEMP:  67; 6HR MAX TEMP:  85;

$$

WIZ032>034-041-042-053>061-230700-
SOUTHWEST WISCONSIN

CITY           SKY/WX    TMP DP  RH WIND       PRES   REMARKS
LA CROSSE      CLEAR     72  61  68 NE7       30.12R
6HR MIN TEMP:  70; 6HR MAX TEMP:  84;

SPARTA         CLEAR     67  57  69 NE5       30.13R
VIROQUA        FAIR      67  61  78 NE9       30.13R
BOSCOBEL       CLEAR     70  63  78 NE3       30.10R
6HR MIN TEMP:  67; 6HR MAX TEMP:  87;

PRAIRIE DU CHI CLEAR     69  64  82 CALM      30.09R
PLATTEVILLE    FAIR      69  65  86 N8        30.09R
$$

WIZ056-057-062-063-064-067-068-230700-
SOUTH CENTRAL WISCONSIN

CITY           SKY/WX    TMP DP  RH WIND       PRES   REMARKS
BARABOO/DELLS  CLEAR     68  57  69 N5        30.10R
LONE ROCK      NOT AVBL
WATERTOWN      CLEAR     70  63  79 N7        30.06R
MADISON        CLEAR     71  62  73 NE15      30.09R
6HR MIN TEMP:  71; 6HR MAX TEMP:  87;

MIDDLETON      FAIR      72  59  64 N8        30.08R
MONROE         CLEAR     72  64  78 N12       30.06R
JANESVILLE     CLEAR     77  63  61 N13G18    30.05R
$$

WIZ051-052-058>065-066-070>072-230700-
SOUTHEAST WISCONSIN

CITY           SKY/WX    TMP DP  RH WIND       PRES   REMARKS
MILWAUKEE      CLOUDY    63  57  81 NE13      30.09R
6HR MIN TEMP:  63; 6HR MAX TEMP:  87; 6HR PCP:  0.01;

WAUKESHA       CLOUDY    64  59  82 NE14G21   30.09R
MILWAUKEE/TIMM CLOUDY    63  55  77 NE14G21   30.09R
RACINE         CLOUDY    66  59  78 N18G25    30.09R
6HR MIN TEMP:  66; 6HR MAX TEMP:  87; 6HR PCP: TRACE;

BURLINGTON     CLOUDY    69  62  78 NE14G22   30.06R
KENOSHA        CLOUDY    67  61  81 NE15G29   30.06R
6HR MIN TEMP:  67; 6HR MAX TEMP:  86; 6HR PCP:  0.02;

FOND DU LAC    PTCLDY    68  58  70 NE18G24   30.11R
6HR MIN TEMP:  68; 6HR MAX TEMP:  86;

SHEBOYGAN      MOCLDY    62  56  80 NE12      30.10R
6HR MIN TEMP:  62; 6HR MAX TEMP:  86;

WEST BEND      CLOUDY    66  57  72 E9        30.08R
JUNEAU         CLEAR     68  57  68 N15       30.09R
$$

LSZ147-162-230700-
LAKE SUPERIOR

STATION/POSITION TIME  TEMP    WIND        PRES    WAVE
                       AIR SEA DIR/SP/G            HT/PER
                 (UTC) (F)     (DEG/KT/KT) (MB)    (FT/S)
W MID LAKE BUOY  0450   49 40  270/  6/  6 1020.6R   1/ 3
PORT WING        0500   60     180/  2/  3 1021.0
SAXON HARBOR     0500          200/  1/  3 1020.7R
$$

LMZ867-665-643>646-230700-
LAKE MICHIGAN

STATION/POSITION TIME  TEMP    WIND        PRES    WAVE
                       AIR SEA DIR/SP/G            HT/PER
                 (UTC) (F)     (DEG/KT/KT) (MB)    (FT/S)
N MID LAKE BUOY  0450   57 53  340/  8/ 10 1017.1R   3/ 5
NORTHPORT PIER   0500   64     350/ 19/ 23 1018.3R
KEWAUNEE LAKESHO 0500   56      20/  4/  7 1019.2R
SHEBOYGAN LAKESH 0500   56      20/ 12/ 12 1018.4R
PORT WASHINGTON  0500           40/ 15     1018.6R
ATWATER BUOY     0500   54     360/ 10     1018.4R
MILWAUKEE LAKESH 0500           20/ 17/ 20   N/A
S MID LAKE BUOY  0450   68 65  360/ 23/ 29 1015.1R   2/ 3
KENOSHA   LAKESH 0500   62      10/ 18/ 20   N/A
$$

TC  - TEMPERATURE IN CELSIUS
VSB - VISIBILITY IN STATUTE MILES
WCI - WIND CHILL INDEX
HX  - HEAT INDEX




USA.gov is the U.S. government's official web portal to all federal, state and local government web resources and services.